When you browse on this site, cookies collect data to enhance your experience and personalize the content and advertising you see.
Visit our Privacy Policy to learn more. By continuing to use the site, you agree to this use of cookies and data.
  • In Austria
  • List of Countries
  • For 7 days
  • Water Temperature
  • Weather Map
  • News
  • Weather Widgets
  • user-avatar
    Login

    Hourly Weather Hlukhiv Druhyi

    Today, 22 September, Sunday

    Time Temperature Precipitation Wind Pressure Humidity
    00:00 +11°C° 0 mm 6 mps 746 mmHg 81%
    01:00 +11°C° 0 mm 6 mps 746 mmHg 79%
    02:00 +12°C° 0 mm 5 mps 746 mmHg 78%
    03:00 +11°C° 0 mm 6 mps 746 mmHg 78%
    04:00 +11°C° 0 mm 6 mps 745 mmHg 78%
    05:00 +11°C° 0 mm 6 mps 745 mmHg 78%
    06:00 +11°C° 0 mm 6 mps 745 mmHg 78%
    07:00 +13°C° 0 mm 6 mps 746 mmHg 78%
    08:00 +13°C° 0 mm 6 mps 746 mmHg 79%
    09:00 +13°C° 0 mm 6 mps 746 mmHg 76%
    10:00 +14°C° 0 mm 6 mps 746 mmHg 73%
    11:00 +14°C° 0 mm 6 mps 746 mmHg 70%
    12:00 +15°C° 0 mm 6 mps 746 mmHg 68%
    13:00 +15°C° 0 mm 6 mps 745 mmHg 67%
    14:00 +16°C° 0 mm 6 mps 745 mmHg 65%
    15:00 +16°C° 0 mm 5 mps 745 mmHg 66%
    16:00 +17°C° 0 mm 4 mps 744 mmHg 66%
    17:00 +17°C° 0 mm 4 mps 744 mmHg 67%
    18:00 +16°C° 0 mm 3 mps 744 mmHg 74%
    19:00 +13°C° 0 mm 3 mps 744 mmHg 81%
    20:00 +12°C° 0 mm 3 mps 744 mmHg 87%
    21:00 +11°C° 0 mm 3 mps 744 mmHg 88%
    22:00 +11°C° 0 mm 3 mps 745 mmHg 90%
    23:00 +11°C° 0 mm 3 mps 745 mmHg 91%

    Tomorrow, 23 September, Monday

    Time Temperature Precipitation Wind Pressure Humidity
    00:00 +10°C° 0 mm 3 mps 745 mmHg 91%
    01:00 +10°C° 0 mm 3 mps 745 mmHg 92%
    02:00 +9°C° 0 mm 3 mps 746 mmHg 93%
    03:00 +9°C° 0 mm 3 mps 746 mmHg 90%
    04:00 +9°C° 0 mm 3 mps 746 mmHg 88%
    05:00 +9°C° 0 mm 3 mps 746 mmHg 86%
    06:00 +9°C° 0 mm 3 mps 747 mmHg 81%
    07:00 +9°C° 0 mm 3 mps 747 mmHg 77%
    08:00 +8°C° 0 mm 4 mps 747 mmHg 72%
    09:00 +10°C° 0 mm 4 mps 748 mmHg 65%
    10:00 +11°C° 0 mm 4 mps 748 mmHg 58%
    11:00 +12°C° 0 mm 4 mps 749 mmHg 51%
    12:00 +12°C° 0 mm 4 mps 748 mmHg 47%
    13:00 +13°C° 0 mm 3 mps 748 mmHg 43%
    14:00 +13°C° 0 mm 3 mps 748 mmHg 39%
    15:00 +13°C° 0 mm 3 mps 748 mmHg 40%
    16:00 +12°C° 0 mm 3 mps 748 mmHg 41%
    17:00 +12°C° 0 mm 2 mps 748 mmHg 43%
    18:00 +10°C° 0 mm 2 mps 748 mmHg 44%
    19:00 +8°C° 0 mm 2 mps 748 mmHg 46%
    20:00 +7°C° 0 mm 3 mps 749 mmHg 48%
    21:00 +5°C° 0 mm 3 mps 749 mmHg 51%
    22:00 +4°C° 0 mm 3 mps 749 mmHg 54%
    23:00 +3°C° 0 mm 3 mps 749 mmHg 57%

    Day after tomorrow, 24 September, Tuesday

    Time Temperature Precipitation Wind Pressure Humidity
    00:00 +4°C° 0 mm 2 mps 749 mmHg 59%
    01:00 +4°C° 0 mm 2 mps 749 mmHg 61%
    02:00 +3°C° 0 mm 2 mps 749 mmHg 63%
    03:00 +3°C° 0 mm 2 mps 749 mmHg 64%
    04:00 +2°C° 0 mm 2 mps 749 mmHg 66%
    05:00 +2°C° 0 mm 2 mps 748 mmHg 67%
    06:00 +4°C° 0 mm 2 mps 748 mmHg 63%
    07:00 +4°C° 0 mm 3 mps 748 mmHg 58%
    08:00 +5°C° 0 mm 3 mps 748 mmHg 54%
    09:00 +9°C° 0 mm 3 mps 748 mmHg 48%
    10:00 +11°C° 0 mm 3 mps 748 mmHg 42%
    11:00 +13°C° 0 mm 3 mps 748 mmHg 36%
    12:00 +14°C° 0 mm 3 mps 748 mmHg 35%
    13:00 +14°C° 0 mm 3 mps 747 mmHg 33%
    14:00 +16°C° 0 mm 2 mps 747 mmHg 32%
    15:00 +15°C° 0 mm 2 mps 747 mmHg 36%
    16:00 +15°C° 0 mm 2 mps 746 mmHg 40%
    17:00 +14°C° 0 mm 2 mps 746 mmHg 43%
    18:00 +13°C° 0 mm 2 mps 746 mmHg 42%
    19:00 +10°C° 0 mm 3 mps 746 mmHg 41%
    20:00 +9°C° 0 mm 3 mps 746 mmHg 40%
    21:00 +9°C° 0 mm 3 mps 746 mmHg 40%
    22:00 +8°C° 0 mm 3 mps 746 mmHg 41%
    23:00 +7°C° 0 mm 3 mps 746 mmHg 41%

    25 September, Wednesday

    Time Temperature Precipitation Wind Pressure Humidity
    00:00 +7°C° 0 mm 3 mps 746 mmHg 43%
    01:00 +5°C° 0 mm 3 mps 746 mmHg 45%
    02:00 +4°C° 0 mm 3 mps 745 mmHg 47%
    03:00 +4°C° 0 mm 3 mps 745 mmHg 48%
    04:00 +4°C° 0 mm 3 mps 745 mmHg 50%
    05:00 +4°C° 0 mm 3 mps 745 mmHg 51%
    06:00 +7°C° 0 mm 3 mps 745 mmHg 50%
    07:00 +7°C° 0 mm 4 mps 745 mmHg 48%
    08:00 +10°C° 0 mm 4 mps 745 mmHg 47%
    09:00 +12°C° 0 mm 4 mps 745 mmHg 45%
    10:00 +13°C° 0 mm 4 mps 745 mmHg 42%
    11:00 +15°C° 0 mm 4 mps 745 mmHg 40%
    12:00 +17°C° 0 mm 4 mps 744 mmHg 41%
    13:00 +18°C° 0 mm 4 mps 744 mmHg 41%
    14:00 +20°C° 0 mm 4 mps 744 mmHg 42%
    15:00 +19°C° 0 mm 4 mps 743 mmHg 46%
    16:00 +18°C° 0 mm 3 mps 743 mmHg 50%
    17:00 +18°C° 0 mm 3 mps 742 mmHg 54%
    18:00 +17°C° 0.1 mm 4 mps 743 mmHg 55%
    19:00 +15°C° 0.1 mm 4 mps 743 mmHg 57%
    20:00 +15°C° 0.1 mm 4 mps 743 mmHg 58%
    21:00 +14°C° 0.2 mm 4 mps 742 mmHg 61%
    22:00 +14°C° 0.2 mm 4 mps 742 mmHg 65%
    23:00 +14°C° 0.2 mm 4 mps 742 mmHg 68%

    26 September, Thursday

    Time Temperature Precipitation Wind Pressure Humidity
    00:00 +13°C° 0.3 mm 4 mps 742 mmHg 73%
    01:00 +13°C° 0.3 mm 4 mps 742 mmHg 79%
    02:00 +13°C° 0.3 mm 4 mps 742 mmHg 84%
    03:00 +13°C° 0.1 mm 4 mps 742 mmHg 85%
    04:00 +13°C° 0.1 mm 4 mps 742 mmHg 86%
    05:00 +13°C° 0.1 mm 3 mps 741 mmHg 87%
    06:00 +13°C° 1.1 mm 4 mps 741 mmHg 89%
    07:00 +13°C° 1.1 mm 4 mps 741 mmHg 91%
    08:00 +13°C° 1.1 mm 5 mps 741 mmHg 93%
    09:00 +13°C° 0.9 mm 5 mps 741 mmHg 93%
    10:00 +13°C° 0.9 mm 5 mps 742 mmHg 92%
    11:00 +13°C° 0.9 mm 5 mps 742 mmHg 91%
    12:00 +14°C° 0.1 mm 4 mps 742 mmHg 89%
    13:00 +14°C° 0.1 mm 4 mps 741 mmHg 87%
    14:00 +15°C° 0.1 mm 4 mps 741 mmHg 86%
    15:00 +16°C° 0.3 mm 3 mps 741 mmHg 86%
    16:00 +16°C° 0.3 mm 3 mps 741 mmHg 86%
    17:00 +16°C° 0.3 mm 3 mps 741 mmHg 87%
    18:00 +14°C° 0.2 mm 3 mps 741 mmHg 89%
    19:00 +13°C° 0.2 mm 3 mps 741 mmHg 91%
    20:00 +13°C° 0.2 mm 2 mps 741 mmHg 93%
    21:00 +13°C° 0 mm 2 mps 741 mmHg 93%
    22:00 +13°C° 0 mm 2 mps 741 mmHg 94%
    23:00 +13°C° 0 mm 2 mps 741 mmHg 94%

    27 September, Friday

    Time Temperature Precipitation Wind Pressure Humidity
    00:00 +12°C° 0 mm 2 mps 741 mmHg 94%
    01:00 +11°C° 0 mm 3 mps 741 mmHg 94%
    02:00 +11°C° 0 mm 3 mps 741 mmHg 95%
    03:00 +10°C° 0 mm 3 mps 741 mmHg 95%
    04:00 +10°C° 0 mm 3 mps 741 mmHg 95%
    05:00 +10°C° 0 mm 3 mps 741 mmHg 96%
    06:00 +10°C° 0 mm 4 mps 742 mmHg 95%
    07:00 +11°C° 0 mm 4 mps 742 mmHg 94%
    08:00 +12°C° 0 mm 5 mps 742 mmHg 93%
    09:00 +12°C° 0 mm 5 mps 742 mmHg 89%
    10:00 +13°C° 0 mm 5 mps 742 mmHg 85%
    11:00 +14°C° 0 mm 4 mps 743 mmHg 81%
    12:00 +14°C° 0.1 mm 4 mps 743 mmHg 81%
    13:00 +14°C° 0.1 mm 4 mps 743 mmHg 82%
    14:00 +14°C° 0.1 mm 4 mps 743 mmHg 82%
    15:00 +13°C° 0.2 mm 4 mps 743 mmHg 84%
    16:00 +13°C° 0.2 mm 3 mps 743 mmHg 85%
    17:00 +13°C° 0.2 mm 3 mps 743 mmHg 86%
    18:00 +12°C° 0 mm 3 mps 744 mmHg 89%
    19:00 +11°C° 0 mm 3 mps 744 mmHg 91%
    20:00 +10°C° 0 mm 3 mps 745 mmHg 93%
    21:00 +9°C° 0 mm 3 mps 745 mmHg 94%
    22:00 +9°C° 0 mm 2 mps 745 mmHg 94%
    23:00 +8°C° 0 mm 2 mps 745 mmHg 95%
    Show more